Regional Weather Roundup
Issued by NWS

Home | Current Version | Previous Version | Graphics & Text | Print | Product List | Glossary On
Versions: 1 2 3 4 5 6 7 8 9 10 11 12 13 14 15 16 17 18 19 20 21 22 23 24 25 26 27 28 29 30 31 32 33 34 35 36 37 38 39 40 41 42 43 44 45 46 47 48 49 50
000
ASUS43 KMKX 302200
RWRWI

WISCONSIN REGIONAL WEATHER ROUNDUP
NATIONAL WEATHER SERVICE MILWAUKEE/SULLIVAN WI
500 PM CDT WED JUL 30 2014

NOTE: "FAIR" INDICATES FEW OR NO CLOUDS BELOW 12,000 FEET WITH NO
SIGNIFICANT WEATHER AND/OR OBSTRUCTIONS TO VISIBILITY.

WIZ001-002-006>008-014>016-023>028-302300-
NORTHWEST WISCONSIN

CITY           SKY/WX    TMP DP  RH WIND       PRES   REMARKS
SUPERIOR ARPT  MOSUNNY   78  58  50 NW14G22   29.96S
ASHLAND        PTSUNNY   74  62  66 W10       29.95F THUNDER
HAYWARD        PTSUNNY   69  58  67 VRB6      30.01S
SIREN          SUNNY     78  57  48 W15       30.01S
RICE LAKE      MOSUNNY   76  57  51 W10       30.03S
LADYSMITH      MOSUNNY   70  57  64 SW5       30.04F
EAU CLAIRE     NOT AVBL
MENOMONIE      PTCLDY    79  57  47 W8        30.02F HX  80
NEW RICHMOND   MOSUNNY   76  57  52 W5        30.03F
OSCEOLA        MOSUNNY   79  58  48 W8        30.05S HX  80
$$

WIZ003>005-009-010-017-018-302300-
NORTH CENTRAL WISCONSIN

CITY           SKY/WX    TMP DP  RH WIND       PRES   REMARKS
WOODRUFF       PTSUNNY   74  55  50 W8        30.00S
RHINELANDER    MOSUNNY   70  51  51 W8        30.01F
EAGLE RIVER    PTSUNNY   70  49  47 W7G17     29.99S
LAND O LAKES   PTSUNNY   70  50  49 W6        29.99F
PHILLIPS       MOSUNNY   72  57  59 W7G16     30.00F
TOMAHAWK       MOSUNNY   71  53  53 W7        30.02S
MEDFORD        SUNNY     71  55  57 W9        30.03F
MERRILL        MOSUNNY   72  53  49 W8        30.01F
$$

WIZ029-030-035-036-043>047-302300-
CENTRAL WISCONSIN

CITY           SKY/WX    TMP DP  RH WIND       PRES   REMARKS
WAUSAU         SUNNY     73  49  42 W9        30.00F
MOSINEE        MOSUNNY   73  46  38 W7        30.03F
MARSHFIELD     SUNNY     73  53  49 W10       30.03S
STEVENS POINT  SUNNY     72  47  41 NW9       30.02F
WAUPACA        MOSUNNY   78  44  29 NW7G17    30.01S
WAUTOMA        NOT AVBL
WISC RAPIDS    SUNNY     75  50  41 NW9       30.04S
CAMP DOUGLAS   NOT AVBL
$$

WIZ011>013-019>022-031-037>040-048>050-302300-
NORTHEAST WISCONSIN

CITY           SKY/WX    TMP DP  RH WIND       PRES   REMARKS
ANTIGO         MOSUNNY   71  52  51 W9        30.02S
STURGEON BAY   SUNNY     68  54  60 SE10      29.99F
GREEN BAY      MOSUNNY   73  54  51 SW7       29.99S
MANITOWOC      NOT AVBL
APPLETON       MOSUNNY   73  46  38 NW6       30.00F
CLINTONVILLE   MOSUNNY   75  43  31 NW8       29.99F
OSHKOSH        MOSUNNY   73  53  49 SW5       30.00F
$$

WIZ032>034-041-042-053>061-302300-
SOUTHWEST WISCONSIN

CITY           SKY/WX    TMP DP  RH WIND       PRES   REMARKS
LA CROSSE      NOT AVBL
SPARTA         MOSUNNY   76  51  42 NW9       30.05S
VIROQUA        FAIR      74  56  53 NW6       30.06F
BOSCOBEL       SUNNY     81  52  36 NW8       30.04S HX  80
PRAIRIE DU CHI SUNNY     78  53  40 NW9       30.03F
PLATTEVILLE    FAIR      77  54  43 W8        30.05F
$$

WIZ056-057-062-063-064-067-068-302300-
SOUTH CENTRAL WISCONSIN

CITY           SKY/WX    TMP DP  RH WIND       PRES   REMARKS
BARABOO/DELLS  SUNNY     76  46  34 W8        30.03F
LONE ROCK      NOT AVBL
WATERTOWN      SUNNY     74  53  47 W7        30.02F
MADISON        MOSUNNY   77  52  41 N6        30.02F
MIDDLETON      FAIR      77  48  35 NW6       30.04S
MONROE         PTSUNNY   77  52  41 NW13      30.04S
JANESVILLE     MOSUNNY   79  54  41 NW6       30.01F
$$

WIZ051-052-058>065-066-070>072-302300-
SOUTHEAST WISCONSIN

CITY           SKY/WX    TMP DP  RH WIND       PRES   REMARKS
MILWAUKEE      MOSUNNY   68  54  60 SE7       30.02F
WAUKESHA       PTSUNNY   72  55  56 NE5       30.03F
MILWAUKEE/TIMM SUNNY     70  52  52 SE7       30.02F
RACINE         MOSUNNY   68  56  65 E8        30.04F
BURLINGTON     SUNNY     73  49  42 NW12      30.02F
KENOSHA        SUNNY     70  58  65 E8        30.03F
FOND DU LAC    PTSUNNY   73  51  46 W6        30.01F
SHEBOYGAN      MOSUNNY   74  52  46 W9        30.01S
WEST BEND      MOSUNNY   72  48  43 NW8       30.01F
JUNEAU         MOSUNNY   73  45  37 W8        30.03F
$$

LSZ147-162-302300-
LAKE SUPERIOR

STATION/POSITION TIME  TEMP    WIND        PRES    WAVE
                       AIR SEA DIR/SP/G            HT/PER
                 (UTC) (F)     (DEG/KT/KT) (MB)    (FT/S)
W MID LAKE BUOY  2050   51 43  200/  6/ 14 1014.0R   1/ 3
PORT WING        2100   75     250/  9/ 13 1014.2F
SAXON HARBOR     2100          240/  5/ 10 1014.6F
$$

LMZ867-665-643>646-302300-
LAKE MICHIGAN

STATION/POSITION TIME  TEMP    WIND        PRES    WAVE
                       AIR SEA DIR/SP/G            HT/PER
                 (UTC) (F)     (DEG/KT/KT) (MB)    (FT/S)
N MID LAKE BUOY  2050   54 54  190/  8/ 10 1015.2F   0
NORTHPORT PIER   2100   64     160/  8/ 12 1015.2F
SISTER BAY       2110   70     180/ 11/ 14   N/A
KEWAUNEE LAKESHO 2100          160/  6/  7   N/A
SHEBOYGAN LAKESH 2100   61     150/  7/  7 1016.6F
PORT WASHINGTON  2140   68     170/  6/  8 1016.9F
ATWATER BUOY     2100   63     150/  6     1018.1F
MILWAUKEE LAKESH 2100   62     140/  5/  6   N/A
S MID LAKE BUOY  2050   59 62  330/  4/  6 1017.2F   1
KENOSHA   LAKESH 2100   63      50/  7/  8 1016.9S
$$

TC  - TEMPERATURE IN CELSIUS
VSB - VISIBILITY IN STATUTE MILES
WCI - WIND CHILL INDEX
HX  - HEAT INDEX




USA.gov is the U.S. government's official web portal to all federal, state and local government web resources and services.